Regional Weather Roundup
Issued by NWS Binghamton, NY

Home | Current Version | Previous Version | Text Only | Print | Product List | Glossary On
Versions: 1 2 3 4 5 6 7 8 9 10 11 12 13 14 15 16 17 18 19 20 21 22 23 24 25 26 27 28
000
ASUS41 KBGM 250110
RWRBGM

REGIONAL WEATHER ROUNDUP
NATIONAL WEATHER SERVICE BINGHAMTON NY
900 PM EDT SAT SEP 24 2016

Note: "fair" indicates few or no clouds below 12,000 feet with no
significant weather and/or obstructions to visibility.

* = Station(s) that does not report precipitation, such as rain,
snow, etc, also no thunder or fog.

NYZ009-015>018-022>025-036-037-044>046-055>057-062-250200
...Central New York...

CITY           SKY/WX    TMP DP  RH WIND       PRES   REMARKS
Binghamton     CLEAR     50  39  66 NW6       30.20R
Cortland       FAIR      45  43  93 CALM      30.22R
Dansville      CLEAR     50  43  77 CALM      30.24R
Elmira         CLEAR     53  41  63 NE6       30.21R
Ithaca         CLEAR     42  39  89 N3        30.23R
Hamilton       CLEAR     48  43  81 CALM      30.21R
Hornell        CLEAR     46  43  87 CALM      30.26S
Monticello     CLEAR     52  39  62 NW5       30.19R
Norwich        CLEAR     45  39  81 CALM      30.22R
Oneonta        CLEAR     48  37  66 CALM      30.20R
Penn Yan       CLEAR     45  39  79 CALM      30.23R
Rome           CLEAR     48  43  82 CALM      30.21R
Sidney         CLEAR     50  48  93 CALM      30.20S
Syracuse       CLEAR     51  41  68 W5        30.20R
$$

PAZ038>040-043-044-047-048-072-250200
...Northeast Pennsylvania...

CITY           SKY/WX    TMP DP  RH WIND       PRES   REMARKS
Hazleton       CLEAR     55  41  58 N5        30.21R
Scranton       CLEAR     53  46  77 CALM      30.18R
$$
&&
KEY
WCI = Wind Chill Index
VSB = Visibility
HX  = Heat Index
$$




USA.gov is the U.S. government's official web portal to all federal, state and local government web resources and services.